sat.trackr.live / text

‹ back to catalog

ONEWEB-0502

NORAD 54120 · 2022-138H

PAYLOAD ACTIVE UNKNOWN

§ Identity

Operator
Country
UK
Launch date
2022-10-22
Launch site
SRILR
Launch vehicle
Mass (kg)
RCS (m²)

Purposes: comms

External: N2YO · Heavens-Above · Gunter

§ Orbital elements

Epoch: 2026-09-18T07:56:20.010624Z

Period
109.11 min
Inclination
87.9115°
Eccentricity
0.0002090
Mean motion
13.19726677 rev/d
Perigee alt
1,184.2 km
Apogee alt
1,187.3 km
Semi-major
7,563.9 km
B*
4.9348e-5
RAAN
286.4033°
Arg perigee
86.5780°
Mean anomaly
273.5592°
Rev number
18,911

§ Raw data

ONEWEB-05021 54120U 22138H   26261.33078716  .00000033  00000+0  49348-4 0  99972 54120  87.9115 286.4033 0002090  86.5780 273.5592 13.19726677189118

JSON: /api/v1/satellites/54120 · /tle

For live sub-satellite position, see the globe view (requires WebGL).

§ Visibility from observer

Set your observer location to see the next 7 days of passes ≥ 10°. The values pass through the URL so the page stays shareable.

No JS? Fill the form by hand. The geolocation button needs JavaScript.